Hourly Weather Kislyaki

Today, 25 July, Sunday

Time Temperature Precipitation Wind Pressure Humidity
00:00 +13°C° 0 mm 1 mps 746 mmHg 72%
01:00 +13°C° 0 mm 1 mps 746 mmHg 76%
02:00 +13°C° 0 mm 1 mps 746 mmHg 80%
03:00 +13°C° 0 mm 1 mps 746 mmHg 80%
04:00 +13°C° 0 mm 1 mps 747 mmHg 81%
05:00 +14°C° 0 mm 1 mps 747 mmHg 81%
06:00 +16°C° 0 mm 1 mps 747 mmHg 73%
07:00 +19°C° 0 mm 1 mps 747 mmHg 64%
08:00 +22°C° 0 mm 1 mps 747 mmHg 55%
09:00 +23°C° 0 mm 1 mps 747 mmHg 49%
10:00 +23°C° 0 mm 0 mps 747 mmHg 43%
11:00 +25°C° 0 mm 0 mps 748 mmHg 38%
12:00 +25°C° 0 mm 0 mps 748 mmHg 36%
13:00 +28°C° 0 mm 1 mps 747 mmHg 35%
14:00 +28°C° 0 mm 1 mps 747 mmHg 33%
15:00 +28°C° 0 mm 1 mps 747 mmHg 34%
16:00 +28°C° 0 mm 1 mps 747 mmHg 34%
17:00 +28°C° 0 mm 1 mps 747 mmHg 35%
18:00 +26°C° 0 mm 1 mps 747 mmHg 41%
19:00 +24°C° 0 mm 1 mps 747 mmHg 47%
20:00 +22°C° 0 mm 1 mps 747 mmHg 53%
21:00 +21°C° 0 mm 1 mps 748 mmHg 57%
22:00 +19°C° 0 mm 2 mps 748 mmHg 61%
23:00 +18°C° 0 mm 2 mps 748 mmHg 65%

Tomorrow, 26 July, Monday

Time Temperature Precipitation Wind Pressure Humidity
00:00 +18°C° 0 mm 2 mps 748 mmHg 68%
01:00 +18°C° 0 mm 1 mps 748 mmHg 71%
02:00 +18°C° 0 mm 1 mps 748 mmHg 74%
03:00 +18°C° 0 mm 1 mps 748 mmHg 75%
04:00 +18°C° 0 mm 1 mps 749 mmHg 76%
05:00 +18°C° 0 mm 1 mps 749 mmHg 77%
06:00 +20°C° 0 mm 1 mps 749 mmHg 70%
07:00 +21°C° 0 mm 2 mps 749 mmHg 62%
08:00 +25°C° 0 mm 2 mps 749 mmHg 55%
09:00 +26°C° 0 mm 2 mps 749 mmHg 50%
10:00 +27°C° 0 mm 2 mps 749 mmHg 45%
11:00 +29°C° 0 mm 2 mps 749 mmHg 40%
12:00 +29°C° 0 mm 2 mps 749 mmHg 40%
13:00 +29°C° 0 mm 2 mps 749 mmHg 39%
14:00 +29°C° 0 mm 2 mps 749 mmHg 38%
15:00 +28°C° 0 mm 2 mps 749 mmHg 41%
16:00 +28°C° 0 mm 2 mps 748 mmHg 44%
17:00 +27°C° 0 mm 3 mps 748 mmHg 47%
18:00 +26°C° 0 mm 2 mps 748 mmHg 53%
19:00 +24°C° 0 mm 2 mps 748 mmHg 59%
20:00 +21°C° 0 mm 2 mps 748 mmHg 65%
21:00 +20°C° 0 mm 2 mps 749 mmHg 68%
22:00 +20°C° 0 mm 2 mps 749 mmHg 70%
23:00 +20°C° 0 mm 1 mps 749 mmHg 73%

Day after tomorrow, 27 July, Tuesday

Time Temperature Precipitation Wind Pressure Humidity
00:00 +19°C° 0 mm 1 mps 749 mmHg 75%
01:00 +19°C° 0 mm 1 mps 749 mmHg 77%
02:00 +18°C° 0 mm 1 mps 749 mmHg 78%
03:00 +18°C° 0.1 mm 1 mps 749 mmHg 79%
04:00 +18°C° 0.1 mm 1 mps 749 mmHg 81%
05:00 +18°C° 0.1 mm 1 mps 749 mmHg 82%
06:00 +19°C° 0 mm 2 mps 749 mmHg 74%
07:00 +23°C° 0 mm 2 mps 749 mmHg 66%
08:00 +25°C° 0 mm 2 mps 749 mmHg 59%
09:00 +26°C° 0 mm 2 mps 748 mmHg 53%
10:00 +28°C° 0 mm 3 mps 748 mmHg 47%
11:00 +29°C° 0 mm 3 mps 748 mmHg 41%
12:00 +30°C° 0 mm 3 mps 748 mmHg 39%
13:00 +30°C° 0 mm 3 mps 747 mmHg 38%
14:00 +31°C° 0 mm 3 mps 747 mmHg 36%
15:00 +30°C° 0 mm 3 mps 747 mmHg 41%
16:00 +28°C° 0 mm 3 mps 746 mmHg 46%
17:00 +27°C° 0 mm 3 mps 746 mmHg 51%
18:00 +26°C° 0.1 mm 3 mps 746 mmHg 58%
19:00 +24°C° 0.1 mm 2 mps 746 mmHg 64%
20:00 +21°C° 0.1 mm 2 mps 746 mmHg 71%
21:00 +20°C° 0.1 mm 2 mps 746 mmHg 76%
22:00 +19°C° 0.1 mm 2 mps 745 mmHg 81%
23:00 +19°C° 0.1 mm 3 mps 745 mmHg 86%

28 July, Wednesday

Time Temperature Precipitation Wind Pressure Humidity
00:00 +18°C° 0.7 mm 3 mps 745 mmHg 89%
01:00 +18°C° 0.7 mm 3 mps 745 mmHg 92%
02:00 +18°C° 0.7 mm 3 mps 744 mmHg 94%
03:00 +18°C° 1.9 mm 4 mps 744 mmHg 95%
04:00 +17°C° 1.9 mm 5 mps 743 mmHg 96%
05:00 +17°C° 1.9 mm 5 mps 743 mmHg 96%
06:00 +17°C° 1.1 mm 5 mps 742 mmHg 96%
07:00 +17°C° 1.1 mm 5 mps 742 mmHg 96%
08:00 +18°C° 1.1 mm 4 mps 742 mmHg 96%
09:00 +18°C° 0.4 mm 4 mps 741 mmHg 96%
10:00 +18°C° 0.4 mm 3 mps 741 mmHg 96%
11:00 +18°C° 0.4 mm 2 mps 741 mmHg 96%
12:00 +19°C° 0.3 mm 2 mps 741 mmHg 93%
13:00 +20°C° 0.3 mm 2 mps 741 mmHg 91%
14:00 +21°C° 0.3 mm 2 mps 740 mmHg 88%
15:00 +21°C° 0.4 mm 3 mps 740 mmHg 89%
16:00 +21°C° 0.4 mm 3 mps 740 mmHg 90%
17:00 +20°C° 0.4 mm 4 mps 740 mmHg 90%
18:00 +20°C° 0.1 mm 3 mps 740 mmHg 92%
19:00 +19°C° 0.1 mm 2 mps 741 mmHg 94%
20:00 +19°C° 0.1 mm 2 mps 741 mmHg 96%
21:00 +18°C° 0 mm 2 mps 741 mmHg 96%
22:00 +18°C° 0 mm 2 mps 741 mmHg 96%
23:00 +19°C° 0 mm 1 mps 741 mmHg 97%

29 July, Thursday

Time Temperature Precipitation Wind Pressure Humidity
00:00 +17°C° 0 mm 2 mps 741 mmHg 97%
01:00 +17°C° 0 mm 2 mps 740 mmHg 96%
02:00 +17°C° 0 mm 2 mps 740 mmHg 96%
03:00 +17°C° 0 mm 2 mps 740 mmHg 96%
04:00 +17°C° 0 mm 2 mps 741 mmHg 96%
05:00 +17°C° 0 mm 2 mps 741 mmHg 95%
06:00 +18°C° 0 mm 2 mps 741 mmHg 89%
07:00 +20°C° 0 mm 2 mps 741 mmHg 84%
08:00 +21°C° 0 mm 3 mps 741 mmHg 78%
09:00 +24°C° 0 mm 3 mps 741 mmHg 69%
10:00 +25°C° 0 mm 3 mps 741 mmHg 60%
11:00 +27°C° 0 mm 4 mps 742 mmHg 50%
12:00 +28°C° 0 mm 4 mps 741 mmHg 47%
13:00 +29°C° 0 mm 4 mps 741 mmHg 43%
14:00 +30°C° 0 mm 4 mps 741 mmHg 40%
15:00 +29°C° 0 mm 4 mps 741 mmHg 42%
16:00 +29°C° 0 mm 4 mps 741 mmHg 45%
17:00 +28°C° 0 mm 3 mps 741 mmHg 47%
18:00 +26°C° 0 mm 3 mps 741 mmHg 56%
19:00 +24°C° 0 mm 2 mps 741 mmHg 65%
20:00 +21°C° 0 mm 2 mps 741 mmHg 74%
21:00 +20°C° 0 mm 2 mps 741 mmHg 78%
22:00 +19°C° 0 mm 2 mps 741 mmHg 82%
23:00 +18°C° 0 mm 2 mps 742 mmHg 86%

30 July, Friday

Time Temperature Precipitation Wind Pressure Humidity
00:00 +17°C° 0 mm 2 mps 742 mmHg 87%
01:00 +17°C° 0 mm 2 mps 742 mmHg 89%
02:00 +16°C° 0 mm 1 mps 742 mmHg 90%
03:00 +16°C° 0 mm 1 mps 742 mmHg 90%
04:00 +16°C° 0 mm 1 mps 742 mmHg 90%
05:00 +16°C° 0 mm 1 mps 742 mmHg 90%
06:00 +19°C° 0 mm 1 mps 743 mmHg 80%
07:00 +21°C° 0 mm 1 mps 743 mmHg 70%
08:00 +23°C° 0 mm 1 mps 743 mmHg 60%
09:00 +25°C° 0 mm 2 mps 743 mmHg 54%
10:00 +26°C° 0 mm 2 mps 743 mmHg 48%
11:00 +27°C° 0 mm 2 mps 742 mmHg 41%
12:00 +28°C° 0 mm 2 mps 742 mmHg 39%
13:00 +29°C° 0 mm 2 mps 742 mmHg 36%
14:00 +29°C° 0 mm 2 mps 742 mmHg 34%
15:00 +29°C° 0 mm 2 mps 742 mmHg 35%
16:00 +29°C° 0 mm 2 mps 741 mmHg 36%
17:00 +29°C° 0 mm 1 mps 741 mmHg 37%
18:00 +27°C° 0 mm 2 mps 741 mmHg 45%
19:00 +24°C° 0 mm 2 mps 741 mmHg 53%
20:00 +21°C° 0 mm 2 mps 741 mmHg 61%
21:00 +20°C° 0 mm 2 mps 741 mmHg 63%
22:00 +20°C° 0 mm 2 mps 740 mmHg 65%
23:00 +19°C° 0 mm 2 mps 740 mmHg 67%
Show more